Cozumel, Mexico

5:24 AM EST on February 25, 2018 (GMT -0500)
Cozumel

Weather History for MMCZ - November, 2011

Change the Weather History Date:

Monday, November 28, 2011

  Actual Average Record
Temperature  
Mean Temperature 68 °F -  
Max Temperature 73 °F 80 °F 86 °F (1997)
Min Temperature 64 °F 70 °F 62 °F (2008)
Cooling Degree Days 4    
Growing Degree Days 18 (Base 50)    
Moisture  
Dew Point 61 °F    
Average Humidity 78    
Maximum Humidity 100    
Minimum Humidity 64    
Precipitation  
Precipitation 0.00 in - - ()
Sea Level Pressure  
Sea Level Pressure 30.02 in    
Wind  
Wind Speed 15 mph ()    
Max Wind Speed 25 mph    
Max Gust Speed 30 mph    
Visibility 7.1 miles    
Events      
Averages and records for this station are not official NWS values.
T = Trace of Precipitation, MM = Missing Value Source: Averaged Metar Reports

Daily Weather History Graph

Daily Weather History Graph

Search for Another Location

Airport or City:

Trip Planner

Search our weather history database for the weather conditions in past years. The results will help you decide how hot, cold, wet, or windy it might be!

Date:

Astronomy

Nov. 28, 2011 Rise Set
Actual Time 6:05 AM CST 5:05 PM CST
Civil Twilight 5:41 AM CST 5:29 PM CST
Nautical Twilight 5:14 AM CST 5:56 PM CST
Astronomical Twilight 4:47 AM CST 6:23 PM CST
Moon 9:17 AM CST (11/28) 8:45 PM CST (11/28)
Length of Visible Light 11h 48m
Length of Day
11h 00m
Waxing Crescent, 16% of the Moon is Illuminated
Nov 28
Waxing Crescent
Dec 2
First Quarter
Dec 10
Full
Dec 17
Last Quarter
Dec 24
New

Hourly Weather History & Observations

Time (CST) Temp. Dew Point Humidity Pressure Visibility Wind Dir Wind Speed Gust Speed Precip Events Conditions
12:44 AM 69.8 °F 68.0 °F 94% 29.96 in 7.0 mi NW 15.0 mph 26.5 mph N/A   Partly Cloudy
1:42 AM 68.0 °F 68.0 °F 100% 29.95 in 7.0 mi NNW 20.7 mph - N/A   Scattered Clouds
1:49 AM 68.0 °F 68.0 °F 100% 29.95 in 7.0 mi NNW 20.7 mph - N/A   Scattered Clouds
4:11 AM 68.0 °F 66.2 °F 94% 29.96 in 7.0 mi Calm Calm - N/A   Partly Cloudy
4:49 AM 68.0 °F 66.2 °F 94% 29.97 in 7.0 mi NNW 18.4 mph 29.9 mph N/A   Partly Cloudy
5:46 AM 68.0 °F 64.4 °F 88% 29.95 in 7.0 mi NNW 20.7 mph - N/A   Scattered Clouds
6:42 AM 68.0 °F 64.4 °F 88% 30.00 in 7.0 mi NNW 18.4 mph - N/A   Mostly Cloudy
7:43 AM 68.0 °F 64.4 °F 88% 30.03 in 7.0 mi NW 18.4 mph - N/A   Overcast
8:50 AM 68.0 °F 64.4 °F 88% 30.09 in 7.0 mi NW 20.7 mph - N/A   Overcast
9:52 AM 69.8 °F 62.6 °F 78% 30.06 in 7.0 mi NNW 15.0 mph - N/A   Overcast
10:50 AM 71.6 °F 62.6 °F 73% 30.05 in 7.0 mi NW 21.9 mph - N/A   Mostly Cloudy
11:50 AM 73.4 °F 60.8 °F 65% 30.01 in 8.0 mi NW 20.7 mph - N/A   Mostly Cloudy
12:49 PM 71.6 °F 60.8 °F 69% 30.02 in 8.0 mi NW 23.0 mph - N/A   Scattered Clouds
1:44 PM 71.6 °F 60.8 °F 69% 30.01 in 7.0 mi NW 19.6 mph - N/A   Mostly Cloudy
2:41 PM 69.8 °F 57.2 °F 64% 30.04 in 7.0 mi NW 25.3 mph - N/A   Mostly Cloudy
3:42 PM 69.8 °F 57.2 °F 64% 30.01 in 7.0 mi NNW 16.1 mph 27.6 mph N/A   Mostly Cloudy
4:55 PM 68.0 °F 57.2 °F 68% 30.03 in 8.0 mi NW 17.3 mph - N/A   Scattered Clouds
5:50 PM 66.2 °F 55.4 °F 68% 30.04 in 7.0 mi North 20.7 mph - N/A   Scattered Clouds
6:43 PM 66.2 °F 55.4 °F 68% 30.06 in 7.0 mi NW 17.3 mph - N/A   Scattered Clouds
7:44 PM 66.2 °F 57.2 °F 73% 30.08 in 7.0 mi NNW 13.8 mph - N/A   Scattered Clouds
8:48 PM 66.2 °F 57.2 °F 73% 30.11 in 7.0 mi NW 17.3 mph - N/A   Partly Cloudy
9:40 PM 64.4 °F 55.4 °F 73% 30.09 in 7.0 mi NW 17.3 mph - N/A   Scattered Clouds
10:40 PM 66.2 °F 55.4 °F 68% 30.08 in 7.0 mi NW 15.0 mph - N/A   Scattered Clouds
11:40 PM 66.2 °F 55.4 °F 68% 30.04 in 7.0 mi NW 13.8 mph - N/A   Mostly Cloudy